SITRO-AIS 11 (SHEFFER)

Last updated on Sun Apr 12 2026 00:03:55 GMT+0000 (Coordinated Universal Time)

1 57208U 23091AU 26101.50738635 .00017157 00000+0 48407-3 0 9990 2 57208 97.5135 170.9848 0005251 308.9768 51.1008 15.36453409154549
UTC large
Height (km)
Speed (km/s)
/
Latitude / Longitude
Inclination (degrees)
Orbital Period (minutes)
Azimuth
Elevation
Range (km)
Doppler Factor

Next 0 passes for location: London (51.5072 / 0.1276)

Sorry there are no passes over London.